N9LYA-3 Weather Reports


time (UTC)temp
C
wind
direction
speed
KPH
gust
KPH
rain 1hr
cm
rain 24hr
cm
rain mn
cm
humidity
%
barometer
mb
20260906104023 22 21 0.0 9.7 0.00 0.00 0.00 99 1014.6
20260906103723 22 51 0.0 11.3 0.00 0.00 0.00 99 1014.6
20260906102825 22 40 3.2 9.7 0.00 0.00 0.00 99 1014.6
20260906102523 22 40 3.2 9.7 0.00 0.00 0.00 99 1014.6
20260906102224 22 346 0.0 8.0 0.00 0.00 0.00 99 1014.6
20260906101623 22 0 0.0 0.0 0.00 0.00 0.00 99 1014.6
20260906101023 22 38 0.0 0.0 0.00 0.00 0.00 99 1014.6
20260906100723 22 37 0.0 3.2 0.00 0.00 0.00 99 1014.6
20260906100123 22 29 0.0 0.0 0.00 0.00 0.00 99 1014.6
20260906095823 22 5 0.0 3.2 0.00 0.00 0.00 99 1014.6
20260906095524 22 5 0.0 3.2 0.00 0.00 0.00 99 1014.6
20260906095223 22 45 0.0 3.2 0.00 0.00 0.00 99 1014.6
20260906094924 22 1 0.0 4.8 0.00 0.00 0.00 99 1014.6
20260906094623 22 1 0.0 4.8 0.00 0.00 0.00 99 1014.6
20260906094323 22 52 0.0 0.0 0.00 0.00 0.00 99 1014.6
20260906094023 22 52 0.0 0.0 0.00 0.00 0.00 99 1014.6
20260906093723 22 60 0.0 0.0 0.00 0.00 0.00 99 1014.6
20260906093123 22 36 0.0 4.8 0.00 0.00 0.00 99 1014.6
20260906092823 22 36 0.0 0.0 0.00 0.00 0.00 99 1014.6
20260906092223 22 357 0.0 3.2 0.00 0.00 0.00 99 1014.6
20260906091923 22 0 0.0 4.8 0.00 0.00 0.00 99 1014.6
20260906091623 22 0 0.0 4.8 0.00 0.00 0.00 99 1014.6
20260906091023 22 0 0.0 0.0 0.00 0.00 0.00 99 1014.6
20260906090723 22 8 0.0 3.2 0.00 0.00 0.00 99 1014.6
20260906090123 22 29 0.0 0.0 0.00 0.00 0.00 99 1014.6
20260906085825 22 23 0.0 0.0 0.00 0.00 0.00 99 1014.6
20260906085523 22 23 0.0 0.0 0.00 0.00 0.00 99 1014.6
20260906085223 22 18 0.0 0.0 0.00 0.00 0.00 99 1014.6
20260906084923 22 35 0.0 0.0 0.00 0.00 0.00 99 1014.6
20260906084623 22 35 0.0 0.0 0.00 0.00 0.00 99 1014.6
20260906084324 22 8 0.0 6.4 0.00 0.00 0.00 99 1013.6
20260906084024 22 8 0.0 6.4 0.00 0.00 0.00 99 1013.6
20260906083725 22 5 0.0 0.0 0.00 0.00 0.00 99 1013.6
20260906083424 22 36 0.0 3.2 0.00 0.00 0.00 99 1013.6
20260906083123 22 36 0.0 3.2 0.00 0.00 0.00 99 1013.6
20260906082823 22 14 0.0 0.0 0.00 0.00 0.00 99 1013.6
20260906082223 22 12 0.0 0.0 0.00 0.00 0.00 99 1013.6
20260906081923 22 18 0.0 0.0 0.00 0.00 0.00 99 1013.6
20260906081623 22 18 0.0 0.0 0.00 0.00 0.00 99 1013.6
20260906081323 22 0 0.0 0.0 0.00 0.00 0.00 99 1013.6
20260906081023 22 0 0.0 0.0 0.00 0.00 0.00 99 1013.6
20260906080423 22 10 0.0 0.0 0.00 0.00 0.00 99 1013.5
20260906080123 22 10 0.0 0.0 0.00 0.00 0.00 99 1013.5
20260906075823 22 353 0.0 3.2 0.00 0.00 0.00 99 1013.5
20260906075524 22 353 0.0 3.2 0.00 0.00 0.00 99 1013.5
20260906075223 22 37 0.0 0.0 0.00 0.00 0.00 99 1013.5
20260906074923 22 5 0.0 4.8 0.00 0.00 0.00 99 1013.5
20260906074623 22 5 0.0 4.8 0.00 0.00 0.00 99 1013.5
20260906074323 22 7 0.0 0.0 0.00 0.00 0.00 99 1013.5
20260906073723 22 39 0.0 0.0 0.00 0.00 0.00 99 1013.5
20260906073123 22 9 0.0 0.0 0.00 0.00 0.00 99 1013.5
20260906072823 22 0 0.0 0.0 0.00 0.00 0.00 99 1013.5
20260906072523 22 0 0.0 0.0 0.00 0.00 0.00 99 1013.5
20260906071625 22 57 0.0 0.0 0.00 0.00 0.00 99 1013.5
20260906071325 22 19 0.0 3.2 0.00 0.00 0.00 99 1013.5
20260906071023 22 19 0.0 3.2 0.00 0.00 0.00 99 1013.5
20260906070725 22 22 0.0 3.2 0.00 0.00 0.00 99 1013.5
20260906070424 22 357 0.0 0.0 0.00 0.00 0.00 99 1013.5
20260906070123 22 357 0.0 0.0 0.00 0.00 0.00 99 1013.5
20260906065823 22 111 0.0 3.2 0.00 0.00 0.00 99 1013.5
20260906065524 22 111 0.0 3.2 0.00 0.00 0.00 99 1013.5
20260906065223 22 345 0.0 0.0 0.00 0.00 0.00 99 1013.5
20260906064923 22 345 0.0 0.0 0.00 0.00 0.00 99 1013.5
20260906064623 22 345 0.0 0.0 0.00 0.00 0.00 99 1013.5
20260906064325 22 350 0.0 0.0 0.00 0.00 0.00 99 1014.5
20260906063125 22 357 0.0 0.0 0.00 0.00 0.00 99 1014.5
20260906062823 22 357 0.0 0.0 0.00 0.00 0.00 99 1014.5
20260906062523 22 357 0.0 0.0 0.00 0.00 0.00 99 1014.5
20260906062225 22 357 0.0 0.0 0.00 0.00 0.00 99 1014.6
20260906061923 22 357 0.0 0.0 0.00 0.00 0.00 99 1014.6
20260906061024 22 357 0.0 0.0 0.00 0.00 0.00 99 1014.6
20260906060723 22 10 0.0 0.0 0.00 0.00 0.00 99 1014.6
20260906060423 22 5 0.0 0.0 0.00 0.00 0.00 99 1014.6
20260906060126 22 5 0.0 0.0 0.00 0.00 0.00 99 1014.6
20260906055824 22 5 0.0 0.0 0.00 0.00 0.00 99 1014.6
20260906055523 22 5 0.0 0.0 0.00 0.00 0.00 99 1014.6
20260906055223 22 0 0.0 0.0 0.00 0.00 0.00 99 1014.6
20260906054923 22 0 0.0 0.0 0.00 0.00 0.00 99 1014.6
20260906054624 22 0 0.0 0.0 0.00 0.00 0.00 99 1014.6
20260906054023 22 0 0.0 0.0 0.00 0.00 0.00 99 1014.6
20260906053723 22 0 0.0 0.0 0.00 0.00 0.00 99 1014.6
20260906053123 22 0 0.0 0.0 0.00 0.00 0.00 99 1014.6
20260906052825 22 0 0.0 0.0 0.00 0.00 0.00 99 1014.6
20260906052523 22 0 0.0 0.0 0.00 0.00 0.00 99 1014.6
20260906052223 22 0 0.0 0.0 0.00 0.00 0.00 99 1013.6
20260906051923 22 0 0.0 0.0 0.00 0.00 0.00 99 1013.6
20260906051625 22 0 0.0 0.0 0.00 0.00 0.00 99 1013.6
20260906051323 22 0 0.0 0.0 0.00 0.00 0.00 99 1013.6
20260906051023 22 0 0.0 0.0 0.00 0.00 0.00 99 1013.6
20260906050723 22 0 0.0 0.0 0.00 0.00 0.00 99 1013.6
20260906050125 22 0 0.0 0.0 0.00 0.00 0.00 99 1013.6
20260906045823 22 0 0.0 0.0 0.00 0.00 0.00 99 1013.6
20260906045523 22 0 0.0 0.0 0.00 0.00 0.00 99 1013.6
20260906045223 22 0 0.0 0.0 0.00 0.00 0.00 99 1013.6
20260906044623 22 0 0.0 0.0 0.00 0.00 0.00 99 1013.6
20260906044323 22 0 0.0 0.0 0.00 0.00 0.00 99 1013.6
20260906044023 22 0 0.0 0.0 0.00 0.00 0.00 99 1013.6
20260906043723 22 0 0.0 0.0 0.00 0.00 0.00 99 1013.6
20260906043423 22 0 0.0 0.0 0.00 0.00 0.00 99 1013.6
20260906043123 22 0 0.0 0.0 0.00 0.00 0.00 99 1013.6
20260906042823 22 0 0.0 0.0 0.00 0.00 0.00 99 1013.6
20260906042523 22 0 0.0 0.0 0.00 0.00 0.00 99 1013.6
20260906042223 22 0 0.0 0.0 0.00 0.00 0.00 99 1013.6
20260906041923 22 0 0.0 0.0 0.00 0.00 0.00 99 1013.6
20260906041623 22 0 0.0 0.0 0.00 0.00 0.00 99 1013.6
20260906041023 21 0 0.0 0.0 0.00 0.00 0.00 99 1013.6
20260906040723 21 0 0.0 0.0 0.00 0.00 0.00 99 1013.6
20260906040423 21 0 0.0 0.0 0.00 0.00 0.00 99 1013.6
20260906040125 21 0 0.0 0.0 0.00 0.00 0.00 99 1013.6
20260906035825 22 0 0.0 0.0 0.00 0.00 0.00 99 1013.6
20260906035523 22 0 0.0 0.0 0.00 0.00 0.00 99 1013.6
20260906035223 22 0 0.0 0.0 0.00 0.00 0.00 99 1013.6
20260906034923 22 0 0.0 0.0 0.00 0.00 0.00 99 1013.6
20260906034623 22 0 0.0 0.0 0.00 0.00 0.00 99 1013.6
20260906034325 22 0 0.0 0.0 0.00 0.00 0.00 99 1013.6
20260906033723 22 0 0.0 0.0 0.00 0.00 0.00 99 1013.6
20260906033423 22 0 0.0 0.0 0.00 0.00 0.00 99 1013.6
20260906033123 22 0 0.0 0.0 0.00 0.00 0.00 99 1013.6
20260906032823 22 0 0.0 0.0 0.00 0.00 0.00 99 1013.6
20260906032523 22 0 0.0 0.0 0.00 0.00 0.00 99 1013.6
20260906032223 22 0 0.0 0.0 0.00 0.00 0.00 99 1013.6
20260906031923 22 0 0.0 0.0 0.00 0.00 0.00 99 1013.6
20260906031623 22 0 0.0 0.0 0.00 0.00 0.00 99 1013.6
20260906031323 22 0 0.0 0.0 0.00 0.00 0.00 99 1013.6
20260906031023 22 0 0.0 0.0 0.00 0.00 0.00 99 1013.6
20260906030723 22 0 0.0 0.0 0.00 0.00 0.00 99 1013.6
20260906030423 22 0 0.0 0.0 0.00 0.00 0.00 99 1013.6
20260906030125 22 0 0.0 0.0 0.00 0.00 0.00 99 1013.6
20260906025825 22 0 0.0 0.0 0.00 0.00 0.00 99 1013.5
20260906025523 22 0 0.0 0.0 0.00 0.00 0.00 99 1013.5
20260906025223 22 0 0.0 0.0 0.00 0.00 0.00 99 1013.5
20260906024923 22 0 0.0 0.0 0.00 0.00 0.00 99 1013.5
20260906024623 22 0 0.0 0.0 0.00 0.00 0.00 99 1013.5
20260906024325 22 3 0.0 0.0 0.00 0.00 0.00 99 1013.5
20260906024026 22 3 0.0 0.0 0.00 0.00 0.00 99 1013.5
20260906023723 22 3 0.0 0.0 0.00 0.00 0.00 99 1013.5
20260906023423 22 3 0.0 0.0 0.00 0.00 0.00 99 1013.5
20260906023123 22 3 0.0 0.0 0.00 0.00 0.00 99 1013.5
20260906022525 22 3 0.0 0.0 0.00 0.00 0.00 99 1013.5
20260906021923 22 3 0.0 0.0 0.00 0.00 0.00 99 1012.5
20260906021623 22 3 0.0 0.0 0.00 0.00 0.00 99 1012.5
20260906021324 22 3 0.0 0.0 0.00 0.00 0.00 99 1012.5
20260906021023 22 3 0.0 0.0 0.00 0.00 0.00 99 1012.5
20260906020723 22 3 0.0 0.0 0.00 0.00 0.00 99 1012.5
20260906020423 22 3 0.0 0.0 0.00 0.00 0.00 99 1012.5
20260906020125 22 3 0.0 0.0 0.00 0.00 0.00 99 1012.5
20260906015823 22 259 0.0 0.0 0.00 0.00 0.00 99 1012.5
20260906015523 22 259 0.0 0.0 0.00 0.00 0.00 99 1012.5
20260906015225 22 259 0.0 0.0 0.00 0.00 0.00 99 1012.5
20260906014926 22 259 0.0 0.0 0.00 0.00 0.00 99 1012.5
20260906014625 22 259 0.0 0.0 0.00 0.00 0.00 99 1012.5
20260906014025 22 259 0.0 0.0 0.00 0.00 0.00 99 1012.5
20260906013725 22 259 0.0 0.0 0.00 0.00 0.00 99 1012.5
20260906013425 22 259 0.0 0.0 0.00 0.00 0.00 99 1012.5
20260906013125 22 259 0.0 0.0 0.00 0.00 0.00 99 1012.5
20260906012823 22 259 0.0 0.0 0.00 0.00 0.00 99 1012.5
20260906012523 22 259 0.0 0.0 0.00 0.00 0.00 99 1012.5
20260906012223 22 259 0.0 0.0 0.00 0.00 0.00 99 1012.5
20260906011625 22 259 0.0 0.0 0.00 0.00 0.00 99 1012.5
20260906011325 22 259 0.0 0.0 0.00 0.00 0.00 99 1012.5
20260906011026 22 259 0.0 0.0 0.00 0.00 0.00 99 1012.5
20260906010723 23 259 0.0 0.0 0.00 0.00 0.00 99 1012.5
20260906010425 23 258 0.0 0.0 0.00 0.00 0.00 99 1012.5
20260906010125 23 258 0.0 0.0 0.00 0.00 0.00 99 1012.5
20260906005823 23 259 0.0 0.0 0.00 0.00 0.00 99 1012.5
20260906005526 23 259 0.0 0.0 0.00 0.00 0.00 99 1012.5
20260906005225 23 259 0.0 0.0 0.00 0.00 0.00 99 1012.5
20260906004923 23 259 0.0 0.0 0.00 0.00 0.00 99 1012.4
20260906004625 23 259 0.0 0.0 0.00 0.00 0.00 99 1012.4
20260906004325 23 259 0.0 0.0 0.00 0.00 0.00 99 1012.4
20260906004025 23 259 0.0 0.0 0.00 0.00 0.00 99 1012.4
20260906003425 23 259 0.0 0.0 0.00 0.00 0.00 99 1012.4
20260906003125 23 259 0.0 0.0 0.00 0.00 0.00 99 1012.4
20260906002525 23 259 0.0 0.0 0.00 0.00 0.00 99 1012.4
20260906001925 23 259 0.0 0.0 0.00 0.00 0.00 99 1012.4
20260906001625 23 259 0.0 0.0 0.00 0.00 0.00 99 1012.4
20260906001323 23 259 0.0 0.0 0.00 0.00 0.00 99 1012.4
20260906001023 23 259 0.0 0.0 0.00 0.00 0.00 99 1012.4
20260906000725 23 259 0.0 0.0 0.00 0.00 0.00 97 1012.4
20260906000125 23 259 0.0 0.0 0.00 0.00 0.00 95 1012.4
20260905235525 23 259 0.0 0.0 0.00 0.00 0.00 95 1012.4
20260905235225 23 259 0.0 0.0 0.00 0.00 0.00 95 1012.4
20260905234925 23 259 0.0 0.0 0.00 0.00 0.00 95 1012.4
20260905234521 23 259 0.0 0.0 0.00 0.00 0.00 95 1012.4
20260905222953 30 320 4.8 19.3 0.00 0.00 0.00 63 1012.0
20260905222651 30 320 4.8 19.3 0.00 0.00 0.00 63 1012.0
20260905222351 30 292 0.0 22.5 0.00 0.00 0.00 61 1011.9
20260905222053 30 292 0.0 22.5 0.00 0.00 0.00 61 1011.9
20260905221753 31 263 4.8 20.9 0.00 0.00 0.00 61 1011.8
20260905221451 32 312 0.0 16.1 0.00 0.00 0.00 61 1011.7
20260905221151 32 312 0.0 16.1 0.00 0.00 0.00 61 1011.7
20260905220851 33 294 0.0 3.2 0.00 0.00 0.00 61 1010.7
20260905220551 33 294 0.0 3.2 0.00 0.00 0.00 61 1010.7
20260905220251 33 344 0.0 3.2 0.00 0.00 0.00 61 1010.6
20260905215953 33 348 0.0 0.0 0.00 0.00 0.00 61 1010.6
20260905215652 33 348 0.0 0.0 0.00 0.00 0.00 61 1010.6
20260905215353 33 349 0.0 0.0 0.00 0.00 0.00 59 1011.6
20260905215051 33 349 0.0 0.0 0.00 0.00 0.00 59 1011.6
20260905214751 33 316 0.0 0.0 0.00 0.00 0.00 59 1011.6
20260905214451 35 299 0.0 0.0 0.00 0.00 0.00 59 1011.6
20260905214153 35 299 0.0 0.0 0.00 0.00 0.00 59 1011.6
20260905213853 35 353 0.0 0.0 0.00 0.00 0.00 59 1011.5
20260905213553 35 353 0.0 0.0 0.00 0.00 0.00 59 1011.5
20260905213251 35 342 0.0 4.8 0.00 0.00 0.00 59 1011.5
20260905212951 35 307 0.0 4.8 0.00 0.00 0.00 59 1011.5
20260905212651 35 307 0.0 4.8 0.00 0.00 0.00 59 1011.5
20260905212353 35 338 0.0 3.2 0.00 0.00 0.00 59 1011.5
20260905212053 35 338 0.0 3.2 0.00 0.00 0.00 59 1011.5
20260905211751 35 283 0.0 4.8 0.00 0.00 0.00 59 1011.5
20260905211451 35 292 0.0 4.8 0.00 0.00 0.00 57 1011.4
20260905211151 35 292 0.0 4.8 0.00 0.00 0.00 57 1011.4
20260905210851 35 326 0.0 0.0 0.00 0.00 0.00 57 1011.4
20260905210551 35 326 0.0 0.0 0.00 0.00 0.00 57 1011.4
20260905205951 36 353 0.0 0.0 0.00 0.00 0.00 57 1011.4
20260905205656 36 353 0.0 0.0 0.00 0.00 0.00 57 1011.4
20260905205351 36 294 0.0 12.9 0.00 0.00 0.00 57 1011.4
20260905205051 36 294 0.0 12.9 0.00 0.00 0.00 57 1011.4
20260905204451 36 353 0.0 16.1 0.00 0.00 0.00 57 1011.4
20260905204153 36 353 0.0 16.1 0.00 0.00 0.00 57 1011.4
20260905203851 36 311 0.0 6.4 0.00 0.00 0.00 57 1011.4
20260905203551 36 311 0.0 6.4 0.00 0.00 0.00 57 1011.4
20260905202951 36 322 0.0 8.0 0.00 0.00 0.00 57 1011.4
20260905202651 36 322 0.0 8.0 0.00 0.00 0.00 57 1011.4
20260905202351 36 334 0.0 4.8 0.00 0.00 0.00 57 1011.4
20260905202053 36 334 0.0 4.8 0.00 0.00 0.00 57 1011.4
20260905201753 36 11 0.0 3.2 0.00 0.00 0.00 57 1011.4
20260905201451 36 290 0.0 0.0 0.00 0.00 0.00 57 1011.4
20260905201153 36 290 0.0 0.0 0.00 0.00 0.00 57 1011.4
20260905200851 35 320 0.0 8.0 0.00 0.00 0.00 57 1011.4
20260905200553 35 320 0.0 8.0 0.00 0.00 0.00 57 1011.4
20260905200254 35 357 0.0 0.0 0.00 0.00 0.00 57 1011.4
20260905195951 35 0 0.0 0.0 0.00 0.00 0.00 57 1011.4
20260905195651 35 0 0.0 0.0 0.00 0.00 0.00 57 1011.4
20260905195351 35 327 0.0 0.0 0.00 0.00 0.00 57 1012.5
20260905195051 35 327 0.0 0.0 0.00 0.00 0.00 57 1012.5
20260905194753 35 344 0.0 4.8 0.00 0.00 0.00 57 1012.5
20260905194451 35 36 0.0 8.0 0.00 0.00 0.00 57 1012.5
20260905194153 35 36 0.0 8.0 0.00 0.00 0.00 57 1012.5
20260905193851 35 21 0.0 0.0 0.00 0.00 0.00 57 1012.5
20260905193551 35 21 0.0 0.0 0.00 0.00 0.00 57 1012.5
20260905193251 35 317 0.0 0.0 0.00 0.00 0.00 57 1012.5
20260905192953 35 289 0.0 0.0 0.00 0.00 0.00 57 1012.5
20260905192651 35 289 0.0 0.0 0.00 0.00 0.00 57 1012.5
20260905192353 35 260 0.0 4.8 0.00 0.00 0.00 57 1012.5
20260905192053 35 260 0.0 4.8 0.00 0.00 0.00 57 1012.5
20260905191753 35 264 0.0 6.4 0.00 0.00 0.00 57 1012.5
20260905191153 35 288 0.0 4.8 0.00 0.00 0.00 57 1012.5
20260905190552 35 4 0.0 3.2 0.00 0.00 0.00 57 1012.5
20260905190251 35 292 0.0 0.0 0.00 0.00 0.00 59 1012.5
20260905185951 35 237 0.0 8.0 0.00 0.00 0.00 59 1012.5
20260905185651 35 237 0.0 8.0 0.00 0.00 0.00 59 1012.5
20260905185351 35 218 0.0 4.8 0.00 0.00 0.00 59 1012.5
20260905185051 35 218 0.0 4.8 0.00 0.00 0.00 59 1012.5
20260905184751 35 204 0.0 0.0 0.00 0.00 0.00 59 1012.6
20260905184451 35 295 0.0 0.0 0.00 0.00 0.00 59 1012.6
20260905184153 35 295 0.0 0.0 0.00 0.00 0.00 59 1012.6
20260905183853 35 158 0.0 0.0 0.00 0.00 0.00 59 1013.6
20260905183251 35 229 0.0 9.7 0.00 0.00 0.00 59 1013.6
20260905182651 35 247 0.0 4.8 0.00 0.00 0.00 59 1013.6
20260905182351 35 238 0.0 0.0 0.00 0.00 0.00 59 1013.6
20260905182051 35 238 0.0 0.0 0.00 0.00 0.00 59 1013.6
20260905181751 33 300 0.0 3.2 0.00 0.00 0.00 59 1013.6
20260905181151 33 266 0.0 0.0 0.00 0.00 0.00 59 1013.7
20260905180553 33 154 0.0 0.0 0.00 0.00 0.00 59 1013.7
20260905180251 33 135 0.0 6.4 0.00 0.00 0.00 59 1013.7
20260905175953 33 198 0.0 0.0 0.00 0.00 0.00 59 1013.7
20260905175652 33 198 0.0 0.0 0.00 0.00 0.00 59 1013.7
20260905175351 33 170 0.0 0.0 0.00 0.00 0.00 59 1013.7
20260905175053 33 170 0.0 0.0 0.00 0.00 0.00 59 1013.7
20260905174753 33 209 0.0 0.0 0.00 0.00 0.00 59 1013.7
20260905174151 33 145 0.0 4.8 0.00 0.00 0.00 59 1013.7
20260905173852 33 250 0.0 3.2 0.00 0.00 0.00 61 1013.7
20260905173553 33 250 0.0 3.2 0.00 0.00 0.00 61 1013.7
20260905173251 33 222 0.0 3.2 0.00 0.00 0.00 61 1013.7
20260905172953 33 196 0.0 4.8 0.00 0.00 0.00 61 1013.7
20260905172653 33 196 0.0 4.8 0.00 0.00 0.00 61 1013.7
20260905172351 33 71 0.0 0.0 0.00 0.00 0.00 61 1013.7
20260905172053 33 71 0.0 0.0 0.00 0.00 0.00 61 1013.7
20260905171753 32 193 0.0 0.0 0.00 0.00 0.00 61 1013.7
20260905171451 32 134 0.0 0.0 0.00 0.00 0.00 61 1013.7
20260905171151 32 134 0.0 0.0 0.00 0.00 0.00 61 1013.7
20260905170553 32 202 0.0 0.0 0.00 0.00 0.00 61 1013.8
20260905170252 32 216 0.0 8.0 0.00 0.00 0.00 61 1013.8
20260905165951 32 185 0.0 9.7 0.00 0.00 0.00 61 1013.8
20260905165653 32 185 0.0 9.7 0.00 0.00 0.00 61 1013.8
20260905165353 32 199 0.0 0.0 0.00 0.00 0.00 61 1014.8
20260905165051 32 199 0.0 0.0 0.00 0.00 0.00 61 1014.8
20260905164753 32 110 0.0 4.8 0.00 0.00 0.00 61 1014.8
20260905164453 31 134 0.0 0.0 0.00 0.00 0.00 61 1014.8
20260905164153 31 134 0.0 0.0 0.00 0.00 0.00 61 1014.8
20260905163851 31 191 0.0 0.0 0.00 0.00 0.00 61 1014.9
20260905163553 31 191 0.0 0.0 0.00 0.00 0.00 61 1014.9
20260905163251 31 130 0.0 3.2 0.00 0.00 0.00 61 1014.9
20260905162951 31 179 0.0 0.0 0.00 0.00 0.00 61 1014.9
20260905162651 31 179 0.0 0.0 0.00 0.00 0.00 61 1014.9
20260905162351 31 153 0.0 0.0 0.00 0.00 0.00 61 1014.9
20260905162051 31 153 0.0 0.0 0.00 0.00 0.00 61 1014.9
20260905161751 31 151 0.0 3.2 0.00 0.00 0.00 61 1014.9
20260905161153 31 155 0.0 0.0 0.00 0.00 0.00 61 1014.9
20260905160851 31 130 0.0 6.4 0.00 0.00 0.00 61 1014.9
20260905160251 31 232 0.0 0.0 0.00 0.00 0.00 61 1014.9
20260905155951 30 125 0.0 6.4 0.00 0.00 0.00 61 1014.9
20260905155652 30 125 0.0 6.4 0.00 0.00 0.00 61 1014.9
20260905155351 31 148 0.0 4.8 0.00 0.00 0.00 63 1014.9
20260905155051 31 148 0.0 4.8 0.00 0.00 0.00 63 1014.9
20260905154753 30 194 0.0 4.8 0.00 0.00 0.00 61 1014.9
20260905154153 30 202 0.0 8.0 0.00 0.00 0.00 63 1014.9
20260905153853 30 148 0.0 3.2 0.00 0.00 0.00 63 1015.0
20260905153553 30 148 0.0 3.2 0.00 0.00 0.00 63 1015.0
20260905153252 30 187 0.0 0.0 0.00 0.00 0.00 63 1015.0
20260905152951 30 180 0.0 4.8 0.00 0.00 0.00 63 1015.0
20260905152653 30 180 0.0 4.8 0.00 0.00 0.00 63 1015.0
20260905152051 30 113 0.0 4.8 0.00 0.00 0.00 65 1015.0
20260905151751 30 76 0.0 3.2 0.00 0.00 0.00 65 1015.1
20260905151451 30 82 0.0 0.0 0.00 0.00 0.00 65 1015.1
20260905151153 30 82 0.0 0.0 0.00 0.00 0.00 65 1015.1
20260905150551 30 136 0.0 11.3 0.00 0.00 0.00 65 1015.1
20260905150253 30 175 0.0 3.2 0.00 0.00 0.00 65 1015.1
20260905145953 28 122 3.2 9.7 0.00 0.00 0.00 65 1015.1
20260905145653 28 122 3.2 9.7 0.00 0.00 0.00 65 1015.1
20260905145351 28 150 0.0 9.7 0.00 0.00 0.00 67 1015.1
20260905145051 28 150 0.0 9.7 0.00 0.00 0.00 67 1015.1
20260905144751 28 81 0.0 0.0 0.00 0.00 0.00 69 1015.1
20260905144453 27 184 0.0 6.4 0.00 0.00 0.00 69 1015.2
20260905144153 27 184 0.0 6.4 0.00 0.00 0.00 69 1015.2
20260905143851 27 199 0.0 4.8 0.00 0.00 0.00 71 1016.2
20260905143251 27 218 0.0 3.2 0.00 0.00 0.00 69 1016.2
20260905142951 27 128 0.0 0.0 0.00 0.00 0.00 76 1016.2
20260905142652 27 128 0.0 0.0 0.00 0.00 0.00 76 1016.2
20260905142351 27 151 0.0 0.0 0.00 0.00 0.00 78 1016.2
20260905142051 27 151 0.0 0.0 0.00 0.00 0.00 78 1016.2
20260905141751 26 111 0.0 4.8 0.00 0.00 0.00 84 1016.3
20260905141452 26 189 0.0 6.4 0.00 0.00 0.00 86 1016.3
20260905141153 26 189 0.0 6.4 0.00 0.00 0.00 86 1016.3
20260905140852 25 135 0.0 3.2 0.00 0.00 0.00 88 1016.3
20260905135951 25 146 0.0 0.0 0.00 0.00 0.00 88 1016.4
20260905135651 25 146 0.0 0.0 0.00 0.00 0.00 88 1016.4
20260905135351 25 131 0.0 4.8 0.00 0.00 0.00 86 1016.4
20260905135051 25 131 0.0 4.8 0.00 0.00 0.00 86 1016.4
20260905134751 25 27 0.0 12.9 0.00 0.00 0.00 86 1016.3
20260905134151 25 70 0.0 0.0 0.00 0.00 0.00 84 1016.3
20260905133851 26 99 0.0 8.0 0.00 0.00 0.00 82 1016.3
20260905133551 26 99 0.0 8.0 0.00 0.00 0.00 82 1016.3
20260905132951 26 141 0.0 4.8 0.00 0.00 0.00 84 1016.3
20260905132051 26 115 0.0 16.1 0.00 0.00 0.00 88 1016.3
20260905131751 26 54 0.0 12.9 0.00 0.00 0.00 95 1016.3
20260905131451 25 49 0.0 4.8 0.00 0.00 0.00 95 1016.3
20260905130851 25 44 0.0 4.8 0.00 0.00 0.00 93 1016.4
20260905130551 25 44 0.0 4.8 0.00 0.00 0.00 93 1016.4
20260905130253 25 40 0.0 3.2 0.00 0.00 0.00 91 1016.4
20260905125951 25 91 0.0 11.3 0.00 0.00 0.00 88 1016.3
20260905125652 25 91 0.0 11.3 0.00 0.00 0.00 88 1016.3
20260905125351 26 35 0.0 8.0 0.00 0.00 0.00 88 1015.3
20260905125051 26 35 0.0 8.0 0.00 0.00 0.00 88 1015.3
20260905124751 26 216 0.0 0.0 0.00 0.00 0.00 99 1015.3
20260905124451 26 216 0.0 0.0 0.00 0.00 0.00 99 1015.3
20260905124152 26 216 0.0 0.0 0.00 0.00 0.00 99 1015.3
20260905123851 26 216 0.0 0.0 0.00 0.00 0.00 99 1015.3
20260905123551 26 216 0.0 0.0 0.00 0.00 0.00 99 1015.3
20260905123252 25 216 0.0 0.0 0.00 0.00 0.00 99 1015.3
20260905122951 25 216 0.0 0.0 0.00 0.00 0.00 99 1015.4
20260905122051 25 216 0.0 0.0 0.00 0.00 0.00 99 1015.4
20260905121751 25 216 0.0 0.0 0.00 0.00 0.00 99 1015.5
20260905121451 23 216 0.0 0.0 0.00 0.00 0.00 99 1015.5
20260905121152 23 216 0.0 0.0 0.00 0.00 0.00 99 1015.5
20260905120851 23 216 0.0 0.0 0.00 0.00 0.00 99 1015.5
20260905120551 23 216 0.0 0.0 0.00 0.00 0.00 99 1015.5
20260905120251 23 216 0.0 0.0 0.00 0.00 0.00 99 1015.5
20260905115951 23 216 0.0 0.0 0.00 0.00 0.00 99 1015.5
20260905115651 23 216 0.0 0.0 0.00 0.00 0.00 99 1015.5
20260905115351 23 216 0.0 0.0 0.00 0.00 0.00 99 1014.5
20260905115051 23 216 0.0 0.0 0.00 0.00 0.00 99 1014.5
20260905114751 23 216 0.0 0.0 0.00 0.00 0.00 99 1014.5
20260905114451 23 216 0.0 0.0 0.00 0.00 0.00 99 1014.5
20260905114152 23 216 0.0 0.0 0.00 0.00 0.00 99 1014.5
20260905113851 23 216 0.0 0.0 0.00 0.00 0.00 99 1014.5
20260905113551 23 216 0.0 0.0 0.00 0.00 0.00 99 1014.5
20260905113251 23 216 0.0 4.8 0.00 0.00 0.00 99 1014.5
20260905112951 23 198 0.0 0.0 0.00 0.00 0.00 99 1014.5
20260905112652 23 198 0.0 0.0 0.00 0.00 0.00 99 1014.5
20260905112352 23 203 0.0 0.0 0.00 0.00 0.00 99 1014.5
20260905112051 23 203 0.0 0.0 0.00 0.00 0.00 99 1014.5
20260905111752 23 203 0.0 0.0 0.00 0.00 0.00 99 1014.5
20260905111451 23 203 0.0 0.0 0.00 0.00 0.00 99 1014.5
20260905110552 23 203 0.0 0.0 0.00 0.00 0.00 99 1014.5
20260905110251 23 203 0.0 0.0 0.00 0.00 0.00 99 1014.5
20260905105952 23 203 0.0 0.0 0.00 0.00 0.00 99 1014.5
20260905104751 23 203 0.0 0.0 0.00 0.00 0.00 99 1014.5
20260905104151 23 203 0.0 0.0 0.00 0.00 0.00 99 1014.5